Terminal Aerodrome Forecast
Issued by NWS

Home | Current Version | Previous Version | Text Only | Print | Product List | Glossary On
Versions: 1 2 3 4 5 6 7 8 9 10 11 12 13 14 15 16 17
000
FTUS46 KLOX 251600 AAB
TAFWJF
TAF AMD
KWJF 251611Z 2516/2612 27012KT P6SM SCT200
     FM251800 24015KT P6SM SCT200
     FM252200 24020G30KT P6SM SCT200
     FM260300 24015KT P6SM SCT200=

USA.gov is the U.S. government's official web portal to all federal, state and local government web resources and services.